Simultaneous Nadir Overpasses (SNOs) Predictions

Prediction of SNOs between GOES-14 and NOAA-20 Satellite Orbit:

Table of predicted SNOs for the next 14.0 days since TLE Epoch: 11/9/2019
Index Date Time (GOES-14) GOES-14 Lat,Lon NOAA-20 Lat,Lon Distance(km) Time Diff (sec)
1 11/09/2019 08:26:09 0.12,-104.23 0.26,-105.01 87.58 80
2 11/10/2019 08:04:44 0.13,-104.22 -0.69,-100.46 428.13 80
3 11/11/2019 20:26:40 -0.11,-104.09 -0.50,-105.77 191.14 80
4 11/12/2019 20:10:36 -0.12,-104.10 0.52,-101.24 326.22 80
5 11/14/2019 08:32:25 0.10,-104.24 0.58,-106.52 259.29 80
6 11/15/2019 08:11:00 0.11,-104.23 -0.38,-101.98 256.10 80
7 11/16/2019 20:32:56 -0.08,-104.06 -0.80,-107.28 366.93 80
8 11/17/2019 20:16:52 -0.09,-104.06 0.22,-102.75 149.89 80
9 11/19/2019 08:38:40 0.07,-104.23 0.94,-108.03 433.14 80
10 11/20/2019 08:17:15 0.08,-104.22 -0.08,-103.50 82.14 80
11 11/22/2019 20:20:26 -0.07,-104.03 -0.15,-104.26 26.71 80




NCC Satellite Simultaneous Nadir Overpasses (SNOs) Prediction Service
